Probability
0 0 0 0 0 0 0 0 0 0 0 0 0 0 0 0 0 0 0 0 0 0 0 0 0 0 0 0 0 0 0 0 0 0 0 0 0 0 0 0 0 0 0 0
0 0 0 0 0 0 0 0 0 0 0 0 0 0 0 0 0 0 0 0 0 0 0 0 0 0 0 0 0 0 0 0 0 0 0 0 0 0 0 0 0 0 0 0
0 0 0 0 0 0 0 0 0 0 0 0 0 0 0 0 0 0 0 0 0 0 0 0 0 0 0 0 0 0 0 0 0 0 0 0 0 0 0 0 0 0 0 0
0 0 0 0 0 0 0 0 0 0 0 0 0 0 0 0 0 0 0 0 0 0 0 0 0 0 0 0 0 0 0 0 0 0 0 0 0 0 0 0 0 0 0 0
0 0 0 0 0 0 0 0 0 0 0 0 0 0 0 0 0 0 0 0 0 0 0 0 0 0 0 0 0 0 0 0 0 0 0 0 0 0 0 0 0 0 0 0
0 0 0 0 0 0 0 0 0 0 0 0 0 0 0 0 0 0 0 0 0 0 0 0 0 0 0 0 0 0 0 0 0 0 0 0 0 0 0 0 0 0 0 0
0 0 0 0 0 0 0 0 0 0 0 0 0 0 0 0 0 0 0 0 0 0 0 0 0 0 0 0 0 0 0 0 0 0 0 0 0 0 0 0 0 0 0 0
0 0 0 0 0 0 0 0 0 0 0 0 0 0 0 0 0 0 0 0 0 0 0 0 0 0 0 0 0 0 0 0 0 0 0 0 0 0 0 0 0 0 0 0
0 0 0 0 0 0 0 0 0 0 0 0 0 0 0 0 0 0 0 0 0 0 0 0 0 0 0 0 0 0 0 0 0 0 0 0 0 0 0 0 0 0 0 0
0 0 0 0 0 0 0 0 0 0 0 0 0 0 0 0 0 0 0 0 0 0 0 0 0 0 0 0 0 0 0 0 0 0 0 0 0 0 0 0 0 0 0 0
0 0 0 0 0 0 0 0 0 0 0 0 0 0 0 0 0 0 0 0 0 0 0 0 0 0 0 0 0 0 0 0 0 0 0 0 0 0 0 0 0 0 0 0
0 0 0 0 0 0 0 0 0 0 0 0 0 0 0 0 0 0 0 0 0 0 0 0 0 0 0 0 0 0 0 0 0 0 0 0 0 0 0 0 0 0 0 0
0 0 0 0 0 0 0 0 0 0 0 0 0 0 0 0 0 0 0 0 0 0 0 0 0 0 0 0 0 0 0 0 0 0 0 0 0 0 0 0 0 0 0 0
0 0 0 0 0 0 0 0 0 0 0 0 0 0 0 0 0 0 0 0 0 0 0 0 0 0 0 0 0 0 0 0 0 0 0 0 0 0 0 0 0 0 0 0
0 0 0 0 0 0 0 0 0 0 0 0 0 0 0 0 0 0 0 0 0 0 0 0 0 0 0 0 0 0 0 0 0 0 0 0 0 0 0 0 0 0 0 0
0 0 0 0 0 0 0 0 0 0 0 0 0 0 0 0 0 0 0 0 0 0 0 0 0 0 0 0 0 0 0 0 0 0 0 0 0 0 0 0 0 0 0 0
0 0 0 0 0 0 0 0 0 0 0 0 0 0 0 0 0 0 0 0 0 0 0 0 0 0 0 0 0 0 0 0 0 0 0 0 0 0 0 0 0 0 0 0
0 0 0 0 0 0 0 0 0 0 0 0 0 0 0 0 0 0 0 0 0 0 0 0 0 0 0 0 0 0 0 0 0 0 0 0 0 0 0 0 0 0 0 0
0 0 0 0 0 0 0 0 0 0 0 0 0 0 0 0 0 0 0 0 0 0 0 0 0 0 0 0 0 0 0 0 0 0 0 0 0 0 0 0 0 0 0 0
0 0 0 0 0 0 0 0 0 0 0 0 0 0 0 0 0 0 0 0 0 0 0 0 0 0 0 0 0 0 0 0 0 0 0 0 0 0 0 0 0 0 0 0
0 0 0 0 0 0 0 0 0 0 0 0 0 0 0 0 0 0 0 0 0 0 0 0 0 0 0 0 0 0 0 0 0 0 0 0 0 0 0 0 0 0 0 0
0 0 0 0 0 0 0 0 0 0 0 0 0 0 0 0 0 0 0 0 0 0 0 0 0 0 0 0 0 0 0 0 0 0 0 0 0 0 0 0 0 0 0 0
0 0 0 0 0 0 0 0 0 0 0 0 0 0 0 0 0 0 0 0 0 0 0 0 0 0 0 0 0 0 0 0 0 0 0 0 0 0 0 0 0 0 0 0
0 0 0 0 0 0 0 0 0 0 0 0 0 0 0 0 0 0 0 0 0 0 0 0 0 0 0 0 0 0 0 0 0 0 0 0 0 0 0 0 0 0 0 0
0 0 0 0 0 0 0 0 0 0 0 0 0 0 0 0 0 0 0 0 0 0 0 0 0 0 0 0 0 0 0 0 0 0 0 0 0 0 0 0 0 0 0 0
0 0 0 0 0 0 0 0 0 0 0 0 0 0 0 0 0 0 0 0 0 0 0 0 0 0 0 0 0 0 0 0 0 0 0 0 0 0 0 0 0 0 0 0
Height
5645 5650 5658 5666 5669 5676 5681 5687 5695 5705 5713 5718 5722 5731 5741 5744 5747 5753 5757 5760 5763 5766 5769 5771 5773 5775 5778 5780 5782 5783 5784 5784 5784 5783 5782 5780 5779 5777 5776 5774 5772 5770 5767 5764
5630 5638 5648 5649 5653 5659 5667 5675 5685 5695 5704 5710 5715 5723 5732 5737 5742 5748 5752 5754 5757 5761 5764 5766 5768 5770 5773 5775 5777 5778 5779 5779 5778 5777 5776 5774 5773 5771 5769 5767 5765 5763 5760 5757
5617 5629 5630 5632 5638 5646 5654 5666 5679 5688 5697 5702 5707 5715 5724 5731 5736 5741 5745 5749 5751 5756 5758 5760 5763 5765 5768 5770 5772 5773 5773 5773 5772 5771 5769 5768 5767 5765 5763 5761 5758 5755 5752 5748
5604 5612 5612 5616 5624 5634 5645 5661 5673 5682 5690 5694 5701 5708 5718 5724 5728 5733 5739 5742 5745 5750 5752 5755 5758 5760 5763 5765 5766 5767 5767 5766 5765 5764 5763 5762 5760 5758 5756 5753 5751 5747 5744 5740
5593 5598 5600 5604 5616 5626 5640 5656 5667 5677 5684 5689 5694 5701 5712 5716 5721 5728 5733 5736 5740 5744 5747 5750 5752 5755 5757 5760 5761 5761 5761 5760 5759 5758 5756 5755 5753 5751 5748 5745 5743 5739 5736 5732
5584 5587 5590 5597 5608 5619 5634 5649 5660 5669 5675 5680 5687 5696 5706 5711 5715 5722 5727 5731 5735 5739 5741 5744 5747 5750 5752 5754 5755 5755 5754 5753 5752 5751 5749 5747 5745 5743 5741 5738 5734 5731 5728 5724
5577 5579 5584 5590 5599 5611 5624 5639 5651 5658 5664 5672 5683 5690 5700 5704 5709 5715 5722 5726 5729 5733 5736 5739 5741 5744 5746 5748 5748 5748 5747 5746 5745 5744 5742 5740 5738 5735 5733 5730 5726 5722 5719 5715
5572 5576 5580 5586 5595 5607 5619 5632 5645 5654 5660 5671 5679 5685 5695 5700 5706 5711 5716 5720 5724 5728 5731 5733 5736 5738 5740 5741 5741 5741 5741 5739 5738 5737 5735 5732 5730 5727 5724 5721 5717 5714 5710 5705
5570 5576 5581 5587 5597 5607 5617 5626 5640 5652 5661 5670 5675 5683 5690 5696 5702 5706 5711 5715 5719 5722 5725 5728 5731 5732 5734 5734 5735 5734 5734 5733 5731 5729 5727 5724 5722 5719 5716 5713 5709 5705 5701 5696
5569 5577 5583 5588 5596 5606 5617 5627 5638 5649 5657 5665 5672 5680 5687 5693 5697 5702 5707 5711 5714 5718 5721 5723 5725 5726 5727 5727 5727 5727 5727 5726 5724 5721 5719 5716 5714 5711 5707 5704 5700 5695 5690 5685
5569 5577 5586 5590 5597 5606 5617 5626 5636 5647 5656 5664 5670 5677 5682 5690 5694 5698 5702 5706 5710 5713 5716 5718 5719 5720 5720 5720 5720 5720 5719 5718 5716 5713 5711 5708 5705 5702 5698 5694 5690 5685 5679 5673
5573 5580 5587 5594 5601 5609 5618 5627 5637 5647 5655 5661 5667 5676 5679 5686 5690 5694 5698 5701 5705 5708 5710 5712 5713 5713 5713 5713 5713 5713 5712 5710 5707 5705 5703 5700 5697 5693 5689 5684 5679 5673 5667 5659
5578 5585 5591 5596 5603 5609 5617 5627 5637 5645 5653 5659 5665 5674 5676 5682 5686 5690 5693 5697 5700 5702 5705 5706 5706 5706 5706 5706 5706 5705 5703 5702 5699 5697 5694 5691 5687 5683 5679 5673 5667 5661 5653 5645
5582 5589 5595 5601 5606 5612 5620 5628 5637 5644 5652 5658 5664 5669 5674 5678 5682 5685 5689 5692 5695 5697 5698 5699 5699 5699 5699 5699 5698 5697 5696 5694 5691 5688 5685 5681 5677 5673 5668 5662 5655 5647 5638 5630
5584 5590 5596 5602 5608 5615 5622 5629 5637 5644 5651 5657 5662 5666 5670 5674 5678 5681 5684 5687 5689 5690 5692 5692 5692 5692 5692 5691 5690 5689 5688 5685 5682 5679 5676 5672 5667 5662 5656 5649 5641 5633 5624 5614
5588 5594 5599 5604 5610 5617 5623 5630 5636 5643 5649 5655 5659 5664 5666 5669 5673 5676 5679 5681 5683 5684 5685 5685 5685 5685 5685 5684 5683 5681 5679 5677 5674 5670 5666 5662 5656 5650 5644 5636 5627 5618 5609 5599
5592 5598 5603 5608 5612 5618 5625 5631 5637 5643 5648 5652 5657 5662 5662 5665 5668 5671 5673 5675 5677 5678 5678 5678 5678 5678 5677 5676 5675 5673 5671 5668 5665 5661 5656 5651 5645 5638 5631 5622 5613 5604 5595 5585
5594 5599 5604 5608 5614 5619 5627 5629 5634 5639 5644 5648 5652 5654 5656 5660 5663 5665 5668 5669 5670 5671 5671 5671 5671 5671 5670 5669 5667 5665 5662 5659 5655 5651 5645 5639 5633 5625 5617 5608 5599 5590 5581 5571
5595 5599 5603 5608 5612 5617 5623 5626 5630 5635 5639 5643 5646 5649 5651 5655 5657 5659 5661 5663 5664 5664 5665 5664 5664 5664 5663 5661 5659 5656 5653 5649 5645 5640 5634 5628 5620 5612 5604 5595 5586 5576 5567 5557
5594 5598 5603 5607 5611 5616 5620 5623 5626 5632 5635 5638 5641 5643 5646 5649 5651 5655 5655 5656 5657 5657 5658 5658 5657 5656 5655 5652 5650 5647 5643 5639 5634 5629 5622 5615 5607 5599 5590 5581 5572 5563 5554 5543
5593 5597 5600 5604 5608 5613 5617 5619 5623 5629 5632 5633 5635 5638 5641 5643 5646 5648 5648 5649 5650 5651 5651 5650 5649 5648 5646 5643 5640 5637 5633 5628 5623 5617 5610 5602 5594 5586 5577 5568 5559 5550 5540 5528
5592 5596 5599 5603 5607 5613 5613 5616 5620 5623 5625 5627 5630 5633 5636 5638 5640 5641 5643 5643 5644 5644 5643 5642 5641 5639 5636 5634 5631 5627 5623 5617 5612 5605 5598 5590 5582 5573 5565 5556 5546 5535 5523 5511
5591 5596 5599 5603 5608 5609 5611 5613 5616 5619 5622 5624 5627 5629 5631 5633 5634 5635 5636 5637 5637 5636 5635 5634 5632 5630 5627 5624 5621 5617 5611 5606 5600 5593 5585 5578 5570 5561 5552 5542 5532 5519 5506 5492
5589 5592 5596 5599 5603 5605 5608 5610 5613 5615 5618 5621 5623 5625 5626 5628 5629 5629 5629 5629 5629 5628 5627 5625 5623 5621 5618 5614 5610 5605 5600 5594 5588 5581 5574 5567 5559 5550 5540 5528 5515 5502 5488 5473
5586 5589 5592 5596 5599 5602 5604 5607 5610 5612 5614 5616 5618 5620 5621 5622 5622 5622 5622 5622 5621 5620 5619 5617 5614 5611 5608 5604 5599 5595 5589 5583 5577 5570 5563 5555 5547 5537 5527 5514 5500 5485 5469 5451
5584 5587 5590 5594 5597 5599 5602 5604 5606 5608 5610 5612 5613 5615 5615 5616 5616 5616 5615 5615 5613 5612 5610 5607 5605 5601 5598 5593 5589 5583 5578 5572 5566 5559 5551 5543 5534 5523 5512 5500 5487 5469 5451 5434
Wind_Speed
52 54 54 53 54 53 54 54 55 54 52 52 52 48 43 42 41 37 34 33 32 30 29 29 30 31 30 28 27 26 27 28 30 32 34 35 34 33 32 32 33 35 37 39
53 53 51 52 53 54 55 55 55 54 52 52 52 49 46 44 41 37 34 33 33 30 29 30 30 31 30 29 28 28 28 30 32 34 35 34 33 32 32 33 35 38 40 40
50 47 49 52 55 55 55 55 53 50 49 51 52 50 47 43 40 39 35 33 32 29 30 29 30 30 31 30 29 29 30 32 33 34 34 33 33 33 34 36 38 40 41 41
46 45 48 51 53 54 53 51 49 46 45 49 51 49 45 42 41 40 36 34 32 29 30 30 29 30 29 29 28 29 30 32 33 33 33 33 33 35 37 38 40 41 42 42
41 40 43 46 48 50 49 47 45 43 44 47 49 49 45 43 42 38 35 34 31 30 30 30 29 29 28 27 28 29 30 31 32 32 33 34 35 37 39 40 41 42 42 41
34 35 37 39 43 47 46 45 43 42 43 48 48 47 43 41 39 36 34 32 30 29 30 30 29 28 28 27 28 29 30 31 32 34 35 37 38 39 40 41 41 41 41 41
29 30 33 37 43 48 49 48 46 45 45 47 45 44 41 39 38 35 32 30 29 28 29 30 29 28 28 28 29 30 31 33 34 36 38 39 40 40 40 41 41 40 40 41
25 26 31 38 44 50 50 49 45 46 47 44 42 42 39 38 33 30 30 29 28 28 28 29 28 28 29 29 30 32 33 34 36 37 39 40 40 40 40 40 40 40 41 43
19 22 31 38 44 48 49 48 42 38 40 39 41 38 36 32 29 28 27 26 26 27 27 27 27 28 29 30 31 33 34 35 36 38 39 40 40 39 39 39 40 41 44 46
16 18 30 40 44 44 46 45 40 37 36 36 37 35 33 28 26 26 24 24 25 25 25 26 26 28 29 30 31 33 34 35 36 38 38 39 38 38 39 40 41 44 47 50
15 17 30 41 42 38 41 42 38 37 36 33 31 30 29 25 24 24 23 24 25 26 26 27 28 28 29 31 32 33 34 36 37 37 37 38 38 39 40 42 44 47 50 54
16 15 28 38 36 33 35 38 37 35 34 31 27 26 25 22 22 22 23 24 26 27 27 28 28 29 31 32 33 34 35 35 36 37 37 38 39 41 42 45 47 51 54 58
17 15 25 33 31 31 34 36 35 33 32 30 28 25 22 21 21 22 24 25 25 26 26 27 29 30 32 32 33 34 34 35 36 37 38 39 41 43 45 47 51 55 59 63
16 14 23 29 28 28 29 31 31 31 29 28 26 23 21 21 21 23 24 24 24 25 26 28 30 31 32 32 33 34 34 36 38 39 40 41 43 45 47 51 55 60 64 68
15 14 20 25 27 26 26 26 27 27 26 25 23 22 21 22 21 22 23 24 25 26 27 29 31 32 32 33 34 35 36 38 39 40 42 43 45 47 51 55 60 64 68 71
18 17 21 22 24 25 25 24 24 25 24 23 23 21 22 23 23 23 24 25 26 27 29 30 31 32 33 34 35 36 38 39 41 42 43 45 47 51 55 60 64 68 71 70
20 20 21 22 21 22 22 22 22 22 22 23 23 21 24 25 25 26 26 27 28 28 29 30 31 32 33 34 36 38 39 40 41 43 45 47 51 55 60 64 68 70 69 67
20 20 20 21 21 21 20 22 23 24 24 25 26 27 29 28 27 28 29 28 28 28 29 30 31 32 34 35 37 38 40 41 43 44 47 51 55 60 64 67 68 67 65 65
20 21 22 22 21 20 20 20 23 24 24 26 27 29 31 29 30 30 29 29 29 29 30 31 32 33 34 36 38 39 41 42 44 46 50 54 59 63 66 67 65 64 64 67
21 22 22 22 21 21 21 21 21 22 22 25 26 28 28 28 30 28 28 29 29 29 30 30 31 33 35 37 38 39 41 43 46 49 54 58 62 64 65 63 62 63 67 72
20 21 21 20 20 19 18 19 20 19 19 22 24 24 25 26 26 25 27 28 28 28 29 31 33 34 36 37 38 39 41 45 49 53 57 61 63 62 61 61 63 67 72 77
17 17 17 17 16 15 16 17 17 17 19 21 22 22 23 24 25 25 25 26 27 28 30 32 33 35 35 36 38 41 44 48 52 56 59 60 59 58 59 62 67 72 77 81
17 16 16 17 15 16 16 16 17 17 18 20 20 21 22 22 23 25 26 27 28 30 30 32 32 33 35 37 40 43 47 51 55 57 57 56 56 58 61 66 71 76 82 87
19 19 19 19 18 17 17 18 18 18 18 18 19 20 21 22 23 25 26 27 28 29 30 31 32 34 37 40 43 46 50 53 54 53 53 54 56 60 65 71 76 81 86 91
19 19 19 18 18 18 18 18 17 16 16 16 17 17 18 19 21 22 24 26 27 29 30 32 34 37 39 42 46 49 51 51 50 51 52 55 59 63 69 74 80 85 90 95
17 17 17 16 17 17 16 15 13 13 12 13 14 15 17 19 21 23 25 27 29 31 33 34 36 39 42 45 47 48 47 47 48 50 54 58 63 68 73 78 83 88 93 96
Wind_Direction
253 250 248 248 247 244 241 239 238 236 233 234 236 235 232 236 240 239 238 239 238 237 239 243 244 244 246 249 252 257 264 271 277 282 287 289 289 288 287 289 292 295 297 299
253 251 249 245 242 239 236 235 233 233 232 233 235 233 230 233 237 238 238 239 238 236 239 243 245 246 248 251 255 261 267 273 278 283 286 287 286 287 288 290 293 295 297 299
255 253 247 242 238 236 231 229 228 230 230 232 233 231 229 231 235 237 237 237 237 236 239 243 246 247 249 252 256 263 269 275 280 283 284 284 285 286 289 291 293 295 297 299
255 250 244 238 232 229 226 222 222 223 225 230 231 231 227 230 233 235 235 235 236 235 240 243 246 248 250 253 258 265 272 278 282 282 282 283 285 287 290 292 294 297 299 301
253 247 240 234 227 223 218 213 214 215 223 230 230 230 225 230 232 233 235 235 235 236 241 245 247 249 250 254 260 268 275 279 280 280 281 283 285 288 291 293 296 298 300 301
247 240 232 226 216 210 205 203 206 210 218 226 227 228 225 231 233 232 234 234 235 237 242 245 247 248 251 255 262 270 275 278 278 279 280 283 286 289 292 295 297 298 299 299
241 234 223 212 203 197 192 192 198 207 213 222 223 227 224 229 233 232 232 235 236 238 243 246 248 250 253 258 264 270 273 275 277 279 282 285 288 291 293 295 297 297 298 298
233 225 212 201 193 187 186 189 197 206 211 217 220 225 224 228 234 235 233 235 237 241 244 247 250 253 256 260 265 269 272 275 278 281 284 287 289 292 294 296 296 296 296 297
219 211 197 191 185 185 188 190 195 206 215 219 222 225 226 228 231 234 234 236 239 243 246 250 253 256 258 262 266 270 274 277 281 284 286 288 290 292 294 295 295 295 296 297
193 196 196 187 182 183 186 189 194 202 206 212 219 222 226 228 230 233 236 238 241 245 250 254 256 259 261 264 268 272 276 280 283 285 286 288 290 292 294 294 295 296 298 300
173 182 190 188 185 185 188 189 192 198 204 205 212 217 220 223 227 232 237 240 244 248 252 256 259 261 264 267 271 275 278 281 283 285 286 288 291 292 294 295 297 298 301 304
161 175 190 189 185 187 190 191 194 197 200 201 208 215 217 220 226 231 236 241 245 249 253 257 261 264 267 270 274 277 280 282 284 285 287 289 292 294 295 297 300 302 305 308
158 171 189 195 193 189 189 191 195 198 200 201 208 214 218 221 226 232 236 241 246 251 256 260 263 267 270 274 277 279 281 283 285 287 289 292 294 296 298 301 304 306 309 310
156 163 184 197 197 190 189 191 194 196 198 201 211 217 219 222 228 234 239 246 252 256 260 264 267 271 274 276 279 282 284 286 287 289 292 294 296 298 301 304 307 309 311 312
167 161 172 193 201 200 197 195 196 197 200 205 211 219 225 228 234 242 247 253 258 262 266 269 272 275 278 280 282 284 286 287 289 292 294 296 299 302 304 307 309 311 312 313
171 169 175 188 198 201 201 202 202 202 207 211 214 222 233 238 242 246 253 259 264 267 270 273 277 279 280 281 283 285 286 288 291 294 296 299 301 304 306 309 311 312 312 312
182 181 187 196 202 204 207 211 214 215 218 220 223 232 243 246 249 253 259 265 269 271 274 276 277 278 279 281 283 286 288 290 293 296 298 301 303 306 308 310 311 312 312 312
195 195 201 207 210 215 217 220 223 224 226 229 231 238 246 250 254 259 264 268 271 272 273 274 275 277 279 282 285 287 289 292 295 298 300 302 305 307 309 310 311 311 312 314
203 206 212 218 221 223 226 226 227 229 231 234 237 242 247 253 257 260 265 268 269 270 271 274 276 279 282 284 287 289 292 295 297 299 301 304 306 308 309 310 310 312 313 315
211 215 220 224 226 228 230 233 234 234 237 239 242 246 250 253 256 260 263 264 266 269 272 276 279 282 285 287 289 292 294 296 298 301 303 306 307 308 309 310 311 313 314 316
215 218 222 225 226 228 230 234 237 236 234 238 242 245 247 250 254 255 258 263 267 271 275 279 282 285 287 289 291 293 296 297 300 303 305 307 308 309 310 311 312 314 315 317
214 220 223 222 217 213 220 227 230 228 227 232 237 241 243 246 251 255 259 264 270 275 279 282 285 287 289 290 293 295 297 299 302 304 306 307 308 309 310 312 314 315 317 318
217 220 221 221 217 216 221 227 229 229 230 234 239 243 247 251 256 261 266 271 276 279 282 284 286 288 290 292 294 296 299 302 304 306 307 308 309 310 312 314 315 317 318 319
225 227 226 223 221 224 227 230 234 237 238 240 244 249 254 259 264 269 273 277 280 282 284 286 288 289 291 293 296 299 302 304 306 307 307 308 310 312 314 316 317 318 319 320
225 227 226 223 223 227 231 235 238 238 242 246 250 254 259 265 270 275 280 283 285 286 287 289 290 292 294 297 300 303 304 305 306 307 308 310 311 314 316 318 318 319 320 321
222 223 222 222 224 227 229 231 230 235 242 249 257 264 270 275 280 283 286 288 289 289 290 291 293 295 298 301 302 304 305 306 307 309 310 312 314 316 318 319 320 321 322 323